Time,TemperatureF,DewpointF,PressureIn,WindDirection,WindDirectionDegrees,WindSpeedMPH,WindSpeedGustMPH,Humidity,HourlyPrecipIn,Conditions,Clouds,dailyrainin,SoftwareType,DateUTC
2013-06-13 00:01:00,55.4,52.5,29.82,NNW,338,0.0,0.0,90,0.00,RA,,0.00,WeatherDisplay:10.37,2013-06-13 04:01:00,
2013-06-13 00:02:00,55.4,52.5,29.82,NNW,338,0.0,0.0,90,0.00,RA,,0.00,WeatherDisplay:10.37,2013-06-13 04:02:00,
2013-06-13 00:07:00,55.7,52.8,29.82,NNW,338,0.0,0.0,90,0.00,OVC,,0.00,WeatherDisplay:10.37,2013-06-13 04:07:00,
2013-06-13 00:12:00,55.2,52.3,29.82,NNW,338,0.0,0.0,90,0.00,OVC,,0.00,WeatherDisplay:10.37,2013-06-13 04:12:00,
2013-06-13 00:17:00,55.1,52.2,29.82,NNW,338,0.0,0.0,90,0.00,OVC,,0.00,WeatherDisplay:10.37,2013-06-13 04:17:00,
2013-06-13 00:22:00,55.2,52.3,29.82,NNW,338,0.0,0.0,90,0.00,OVC,,0.00,WeatherDisplay:10.37,2013-06-13 04:22:00,
2013-06-13 00:27:00,55.1,52.2,29.82,NNW,338,0.0,0.0,90,0.00,OVC,,0.00,WeatherDisplay:10.37,2013-06-13 04:27:00,
2013-06-13 00:32:00,55.0,52.1,29.82,NNW,338,0.0,0.0,90,0.00,OVC,,0.00,WeatherDisplay:10.37,2013-06-13 04:32:00,
2013-06-13 00:37:00,54.8,51.9,29.82,NNW,338,0.0,0.0,90,0.00,OVC,,0.00,WeatherDisplay:10.37,2013-06-13 04:37:00,
2013-06-13 00:42:00,54.9,52.0,29.82,NNW,338,0.0,0.0,90,0.00,OVC,,0.00,WeatherDisplay:10.37,2013-06-13 04:42:00,
2013-06-13 00:47:00,54.4,51.5,29.82,NNW,338,0.0,0.0,90,0.00,OVC,,0.00,WeatherDisplay:10.37,2013-06-13 04:47:00,
2013-06-13 00:52:00,54.6,51.7,29.82,NNW,338,0.0,0.0,90,0.00,OVC,,0.00,WeatherDisplay:10.37,2013-06-13 04:52:00,
2013-06-13 00:57:00,54.4,51.5,29.82,NNW,338,0.0,0.0,90,0.00,OVC,,0.00,WeatherDisplay:10.37,2013-06-13 04:57:00,
2013-06-13 01:02:00,54.1,53.0,29.81,NNW,338,0.0,0.0,96,0.00,BKN,,0.00,WeatherDisplay:10.37,2013-06-13 05:02:00,
2013-06-13 01:07:00,53.4,52.3,29.81,NNW,338,0.0,0.0,96,0.00,BKN,,0.00,WeatherDisplay:10.37,2013-06-13 05:07:00,
2013-06-13 01:12:00,53.5,52.4,29.81,NNW,338,0.0,0.0,96,0.00,BKN,,0.00,WeatherDisplay:10.37,2013-06-13 05:12:00,
2013-06-13 01:17:00,53.6,52.5,29.81,NNW,338,0.0,0.0,96,0.00,BKN,,0.00,WeatherDisplay:10.37,2013-06-13 05:17:00,
2013-06-13 01:22:00,53.4,52.3,29.81,NNW,338,0.0,0.0,96,0.00,BKN,,0.00,WeatherDisplay:10.37,2013-06-13 05:22:00,
2013-06-13 01:27:00,53.6,52.5,29.81,NNW,338,0.0,0.0,96,0.00,BKN,,0.00,WeatherDisplay:10.37,2013-06-13 05:27:00,
2013-06-13 01:32:00,53.7,52.6,29.81,NNW,338,0.0,0.0,96,0.00,BKN,,0.00,WeatherDisplay:10.37,2013-06-13 05:32:00,
2013-06-13 01:37:00,53.5,52.4,29.81,NNW,338,0.0,0.0,96,0.00,BKN,,0.00,WeatherDisplay:10.37,2013-06-13 05:37:00,
2013-06-13 01:42:00,53.8,52.7,29.81,NNW,338,0.0,0.0,96,0.00,BKN,,0.00,WeatherDisplay:10.37,2013-06-13 05:42:00,
2013-06-13 01:47:00,53.9,52.8,29.81,NNW,338,0.0,0.0,96,0.00,BKN,,0.00,WeatherDisplay:10.37,2013-06-13 05:47:00,
2013-06-13 01:52:00,53.7,52.6,29.81,NNW,338,0.0,0.0,96,0.00,BKN,,0.00,WeatherDisplay:10.37,2013-06-13 05:52:00,
2013-06-13 01:57:00,53.8,52.7,29.81,NNW,338,0.0,0.0,96,0.00,BKN,,0.00,WeatherDisplay:10.37,2013-06-13 05:57:00,
2013-06-13 02:02:00,53.6,52.5,29.80,NNW,338,0.0,0.0,96,0.00,BKN,,0.00,WeatherDisplay:10.37,2013-06-13 06:02:00,
2013-06-13 02:07:00,53.3,52.2,29.80,NNW,338,0.0,0.0,96,0.00,BKN,,0.00,WeatherDisplay:10.37,2013-06-13 06:07:00,
2013-06-13 02:12:00,53.4,52.3,29.80,NNW,338,0.0,0.0,96,0.00,BKN,,0.00,WeatherDisplay:10.37,2013-06-13 06:12:00,
2013-06-13 02:17:00,53.3,52.2,29.80,NNW,338,0.0,0.0,96,0.00,BKN,,0.00,WeatherDisplay:10.37,2013-06-13 06:17:00,
2013-06-13 02:22:00,53.0,51.9,29.80,NNW,338,0.0,0.0,96,0.00,BKN,,0.00,WeatherDisplay:10.37,2013-06-13 06:22:00,
2013-06-13 02:27:00,52.6,51.5,29.80,NNW,338,0.0,0.0,96,0.00,BKN,,0.00,WeatherDisplay:10.37,2013-06-13 06:27:00,
2013-06-13 02:32:00,52.3,51.2,29.80,NNW,338,0.0,0.0,96,0.00,BKN,,0.00,WeatherDisplay:10.37,2013-06-13 06:32:00,
2013-06-13 02:37:00,51.8,50.7,29.80,NNW,338,0.0,0.0,96,0.00,BKN,,0.00,WeatherDisplay:10.37,2013-06-13 06:37:00,
2013-06-13 02:42:00,52.0,50.9,29.80,NNW,338,0.0,0.0,96,0.00,BKN,,0.00,WeatherDisplay:10.37,2013-06-13 06:42:00,
2013-06-13 02:47:00,51.4,50.3,29.80,NNW,338,0.0,0.0,96,0.00,BKN,,0.00,WeatherDisplay:10.37,2013-06-13 06:47:00,
2013-06-13 02:52:00,51.1,50.0,29.80,NNW,338,0.0,0.0,96,0.00,BKN,,0.00,WeatherDisplay:10.37,2013-06-13 06:52:00,
2013-06-13 02:57:00,50.8,49.7,29.80,NNW,338,0.0,0.0,96,0.00,BKN,,0.00,WeatherDisplay:10.37,2013-06-13 06:57:00,
2013-06-13 03:02:00,50.1,50.1,29.81,NNW,338,0.0,0.0,100,0.00,CLR,,0.00,WeatherDisplay:10.37,2013-06-13 07:02:00,
2013-06-13 03:07:00,50.4,50.4,29.81,NNW,338,0.0,0.0,100,0.00,CLR,,0.00,WeatherDisplay:10.37,2013-06-13 07:07:00,
2013-06-13 03:12:00,50.6,50.6,29.81,NNW,338,0.0,0.0,100,0.00,CLR,,0.00,WeatherDisplay:10.37,2013-06-13 07:12:00,
2013-06-13 03:17:00,50.8,50.8,29.81,NNW,338,0.0,0.0,100,0.00,CLR,,0.00,WeatherDisplay:10.37,2013-06-13 07:17:00,
2013-06-13 03:22:00,50.4,50.4,29.81,NNW,338,0.0,0.0,100,0.00,CLR,,0.00,WeatherDisplay:10.37,2013-06-13 07:22:00,
2013-06-13 03:27:00,50.4,50.4,29.81,NNW,338,0.0,0.0,100,0.00,CLR,,0.00,WeatherDisplay:10.37,2013-06-13 07:27:00,
2013-06-13 03:32:00,50.7,50.7,29.81,NNW,338,0.0,0.0,100,0.00,CLR,,0.00,WeatherDisplay:10.37,2013-06-13 07:32:00,
2013-06-13 03:37:00,50.4,50.4,29.81,NNW,338,0.0,0.0,100,0.00,CLR,,0.00,WeatherDisplay:10.37,2013-06-13 07:37:00,
2013-06-13 03:42:00,50.8,50.8,29.81,NNW,338,0.0,0.0,100,0.00,CLR,,0.00,WeatherDisplay:10.37,2013-06-13 07:42:00,
2013-06-13 03:47:00,50.5,50.5,29.81,NNW,338,0.0,0.0,100,0.00,CLR,,0.00,WeatherDisplay:10.37,2013-06-13 07:47:00,
2013-06-13 03:52:00,50.2,50.2,29.81,NNW,338,0.0,0.0,100,0.00,CLR,,0.00,WeatherDisplay:10.37,2013-06-13 07:52:00,
2013-06-13 03:57:00,49.8,49.8,29.81,NNW,338,0.0,0.0,100,0.00,CLR,,0.00,WeatherDisplay:10.37,2013-06-13 07:57:00,
2013-06-13 04:02:00,49.8,49.8,29.79,NNW,338,0.0,0.0,100,0.00,CLR,,0.00,WeatherDisplay:10.37,2013-06-13 08:02:00,
2013-06-13 04:07:00,49.4,49.4,29.79,NNW,338,0.0,0.0,100,0.00,CLR,,0.00,WeatherDisplay:10.37,2013-06-13 08:07:00,
2013-06-13 04:12:00,49.1,49.1,29.79,NNW,338,0.0,0.0,100,0.00,CLR,,0.00,WeatherDisplay:10.37,2013-06-13 08:12:00,
2013-06-13 04:17:00,48.8,48.8,29.79,NNW,338,0.0,0.0,100,0.00,CLR,,0.00,WeatherDisplay:10.37,2013-06-13 08:17:00,
2013-06-13 04:22:00,48.7,48.7,29.79,NNW,338,0.0,0.0,100,0.00,CLR,,0.00,WeatherDisplay:10.37,2013-06-13 08:22:00,
2013-06-13 04:27:00,48.6,48.6,29.79,NNW,338,0.0,0.0,100,0.00,CLR,,0.00,WeatherDisplay:10.37,2013-06-13 08:27:00,
2013-06-13 04:32:00,48.6,48.6,29.79,NNW,338,0.0,0.0,100,0.00,CLR,,0.00,WeatherDisplay:10.37,2013-06-13 08:32:00,
2013-06-13 04:37:00,48.9,48.9,29.79,NNW,338,0.0,0.0,100,0.00,CLR,,0.00,WeatherDisplay:10.37,2013-06-13 08:37:00,
2013-06-13 04:42:00,48.9,48.9,29.79,NNW,338,0.0,0.0,100,0.00,CLR,,0.00,WeatherDisplay:10.37,2013-06-13 08:42:00,
2013-06-13 04:47:00,48.5,48.5,29.79,NNW,338,0.0,0.0,100,0.00,CLR,,0.00,WeatherDisplay:10.37,2013-06-13 08:47:00,
2013-06-13 04:52:00,48.1,48.1,29.79,NNW,338,0.0,0.0,100,0.00,CLR,,0.00,WeatherDisplay:10.37,2013-06-13 08:52:00,
2013-06-13 04:57:00,48.1,48.1,29.79,NNW,338,0.0,0.0,100,0.00,CLR,,0.00,WeatherDisplay:10.37,2013-06-13 08:57:00,
2013-06-13 05:02:00,48.1,48.1,29.81,NNW,338,0.0,0.0,100,0.00,CLR,,0.00,WeatherDisplay:10.37,2013-06-13 09:02:00,
2013-06-13 05:07:00,47.9,47.9,29.81,NNW,338,0.0,0.0,100,0.00,CLR,,0.00,WeatherDisplay:10.37,2013-06-13 09:07:00,
2013-06-13 05:13:00,48.4,48.4,29.81,NNW,338,0.0,0.0,100,0.00,CLR,,0.00,WeatherDisplay:10.37,2013-06-13 09:13:00,
2013-06-13 05:18:00,48.1,48.1,29.81,NNW,338,0.0,0.0,100,0.00,CLR,,0.00,WeatherDisplay:10.37,2013-06-13 09:18:00,
2013-06-13 05:23:00,47.9,47.9,29.81,NNW,338,0.0,0.0,100,0.00,CLR,,0.00,WeatherDisplay:10.37,2013-06-13 09:23:00,
2013-06-13 05:28:00,48.0,48.0,29.81,NNW,338,0.0,0.0,100,0.00,CLR,,0.00,WeatherDisplay:10.37,2013-06-13 09:28:00,
2013-06-13 05:33:00,48.4,48.4,29.81,NNW,338,0.0,0.0,100,0.00,CLR,,0.00,WeatherDisplay:10.37,2013-06-13 09:33:00,
2013-06-13 05:38:00,48.6,48.6,29.81,NNW,338,0.0,0.0,100,0.00,CLR,,0.00,WeatherDisplay:10.37,2013-06-13 09:38:00,
2013-06-13 05:43:00,49.1,49.1,29.81,NNW,338,0.0,0.0,100,0.00,CLR,,0.00,WeatherDisplay:10.37,2013-06-13 09:43:00,
2013-06-13 05:48:00,48.7,48.7,29.81,NNW,338,0.0,0.0,100,0.00,CLR,,0.00,WeatherDisplay:10.37,2013-06-13 09:48:00,
2013-06-13 05:53:00,48.6,48.6,29.81,NNW,338,0.0,0.0,100,0.00,CLR,,0.00,WeatherDisplay:10.37,2013-06-13 09:53:00,
2013-06-13 05:58:00,49.3,49.3,29.81,NNW,338,0.0,0.0,100,0.00,CLR,,0.00,WeatherDisplay:10.37,2013-06-13 09:58:00,
2013-06-13 06:03:00,48.9,48.9,29.81,NNW,338,0.0,0.0,100,0.00,CLR,,0.00,WeatherDisplay:10.37,2013-06-13 10:03:00,
2013-06-13 06:08:00,48.9,48.9,29.81,NNW,338,0.0,0.0,100,0.00,CLR,,0.00,WeatherDisplay:10.37,2013-06-13 10:08:00,
2013-06-13 06:13:00,49.2,48.1,29.82,NNW,338,0.0,0.0,96,0.00,OVC,,0.00,WeatherDisplay:10.37,2013-06-13 10:13:00,
2013-06-13 06:18:00,49.0,47.9,29.82,NNW,338,0.0,0.0,96,0.00,OVC,,0.00,WeatherDisplay:10.37,2013-06-13 10:18:00,
2013-06-13 06:23:00,49.7,48.6,29.82,NNW,338,0.0,0.0,96,0.00,OVC,,0.00,WeatherDisplay:10.37,2013-06-13 10:23:00,
2013-06-13 06:28:00,50.0,48.9,29.82,NNW,338,0.0,0.0,96,0.00,OVC,,0.00,WeatherDisplay:10.37,2013-06-13 10:28:00,
2013-06-13 06:33:00,50.2,49.1,29.82,NNW,338,0.0,0.0,96,0.00,OVC,,0.00,WeatherDisplay:10.37,2013-06-13 10:33:00,
2013-06-13 06:38:00,50.6,49.5,29.82,NNW,338,0.0,0.0,96,0.00,OVC,,0.00,WeatherDisplay:10.37,2013-06-13 10:38:00,
2013-06-13 06:43:00,51.4,50.3,29.82,NNW,338,0.0,0.0,96,0.00,OVC,,0.00,WeatherDisplay:10.37,2013-06-13 10:43:00,
2013-06-13 06:48:00,51.3,50.2,29.82,NNW,338,0.0,0.0,96,0.00,OVC,,0.00,WeatherDisplay:10.37,2013-06-13 10:48:00,
2013-06-13 06:53:00,51.5,50.4,29.82,NNW,338,0.0,0.0,96,0.00,OVC,,0.00,WeatherDisplay:10.37,2013-06-13 10:53:00,
2013-06-13 06:58:00,51.9,50.8,29.82,NNW,338,0.0,0.0,96,0.00,OVC,,0.00,WeatherDisplay:10.37,2013-06-13 10:58:00,
2013-06-13 07:03:00,52.5,51.4,29.82,NNW,338,0.0,0.0,96,0.00,OVC,,0.00,WeatherDisplay:10.37,2013-06-13 11:03:00,
2013-06-13 07:08:00,52.7,51.6,29.82,NNW,338,0.0,0.0,96,0.00,OVC,,0.00,WeatherDisplay:10.37,2013-06-13 11:08:00,
2013-06-13 07:13:00,52.6,47.6,29.79,NNW,338,0.0,0.0,83,0.00,CLR,,0.00,WeatherDisplay:10.37,2013-06-13 11:13:00,
2013-06-13 07:18:00,52.9,47.9,29.79,NNW,338,0.0,0.0,83,0.00,CLR,,0.00,WeatherDisplay:10.37,2013-06-13 11:18:00,
2013-06-13 07:23:00,53.2,48.2,29.79,NNW,338,0.0,0.0,83,0.00,CLR,,0.00,WeatherDisplay:10.37,2013-06-13 11:23:00,
2013-06-13 07:28:00,53.8,48.8,29.79,NNW,338,0.0,0.0,83,0.00,CLR,,0.00,WeatherDisplay:10.37,2013-06-13 11:28:00,
2013-06-13 07:33:00,53.7,48.7,29.79,NNW,338,0.0,0.0,83,0.00,CLR,,0.00,WeatherDisplay:10.37,2013-06-13 11:33:00,
2013-06-13 07:38:00,54.3,49.2,29.79,NNW,338,0.0,0.0,83,0.00,CLR,,0.00,WeatherDisplay:10.37,2013-06-13 11:38:00,
2013-06-13 07:43:00,54.8,49.7,29.79,NNW,338,0.0,0.0,83,0.00,CLR,,0.00,WeatherDisplay:10.37,2013-06-13 11:43:00,
2013-06-13 07:48:00,54.7,49.6,29.79,NNW,338,0.0,0.0,83,0.00,CLR,,0.00,WeatherDisplay:10.37,2013-06-13 11:48:00,
2013-06-13 07:53:00,55.0,49.9,29.79,NNW,338,0.0,0.0,83,0.00,CLR,,0.00,WeatherDisplay:10.37,2013-06-13 11:53:00,
2013-06-13 07:58:00,55.2,50.1,29.79,NNW,338,0.0,0.0,83,0.00,CLR,,0.00,WeatherDisplay:10.37,2013-06-13 11:58:00,
2013-06-13 08:03:00,56.2,51.1,29.79,NNW,338,0.0,0.0,83,0.00,CLR,,0.00,WeatherDisplay:10.37,2013-06-13 12:03:00,
2013-06-13 08:08:00,56.8,51.7,29.79,NNW,338,0.0,0.0,83,0.00,CLR,,0.00,WeatherDisplay:10.37,2013-06-13 12:08:00,
2013-06-13 08:13:00,56.7,48.9,29.81,NNW,338,0.0,0.0,75,0.00,CLR,,0.00,WeatherDisplay:10.37,2013-06-13 12:13:00,
2013-06-13 08:18:00,57.0,49.2,29.81,NNW,338,0.0,0.0,75,0.00,CLR,,0.00,WeatherDisplay:10.37,2013-06-13 12:18:00,
2013-06-13 08:23:00,57.3,49.4,29.81,NNW,338,0.0,0.0,75,0.00,CLR,,0.00,WeatherDisplay:10.37,2013-06-13 12:23:00,
2013-06-13 08:28:00,57.8,49.9,29.81,NNW,338,0.0,0.0,75,0.00,CLR,,0.00,WeatherDisplay:10.37,2013-06-13 12:28:00,
2013-06-13 08:33:00,58.3,50.4,29.81,NNW,338,0.0,0.0,75,0.00,CLR,,0.00,WeatherDisplay:10.37,2013-06-13 12:33:00,
2013-06-13 08:38:00,58.6,50.7,29.81,NNW,338,0.0,0.0,75,0.00,CLR,,0.00,WeatherDisplay:10.37,2013-06-13 12:38:00,
2013-06-13 08:43:00,58.9,51.0,29.81,NNW,338,0.0,0.0,75,0.00,CLR,,0.00,WeatherDisplay:10.37,2013-06-13 12:43:00,
2013-06-13 08:48:00,59.5,51.6,29.81,NNW,338,0.0,0.0,75,0.00,CLR,,0.00,WeatherDisplay:10.37,2013-06-13 12:48:00,
2013-06-13 08:53:00,59.6,51.7,29.81,NNW,338,0.0,0.0,75,0.00,CLR,,0.00,WeatherDisplay:10.37,2013-06-13 12:53:00,
2013-06-13 08:58:00,59.9,52.0,29.81,NNW,338,0.0,0.0,75,0.00,CLR,,0.00,WeatherDisplay:10.37,2013-06-13 12:58:00,
2013-06-13 09:03:00,60.3,48.1,29.79,NNW,338,0.0,0.0,64,0.00,CLR,,0.00,WeatherDisplay:10.37,2013-06-13 13:03:00,
2013-06-13 09:08:00,60.6,48.4,29.79,NNW,338,0.0,0.0,64,0.00,CLR,,0.00,WeatherDisplay:10.37,2013-06-13 13:08:00,
2013-06-13 09:13:00,61.2,48.9,29.79,NNW,338,0.0,0.0,64,0.00,CLR,,0.00,WeatherDisplay:10.37,2013-06-13 13:13:00,
2013-06-13 09:18:00,61.4,49.1,29.79,NNW,338,0.0,0.0,64,0.00,CLR,,0.00,WeatherDisplay:10.37,2013-06-13 13:18:00,
2013-06-13 09:23:00,62.1,49.8,29.79,NNW,338,0.0,0.0,64,0.00,CLR,,0.00,WeatherDisplay:10.37,2013-06-13 13:23:00,
2013-06-13 09:28:00,62.1,49.8,29.79,NNW,338,0.0,0.0,64,0.00,CLR,,0.00,WeatherDisplay:10.37,2013-06-13 13:28:00,
2013-06-13 09:33:00,61.5,49.2,29.79,NNW,338,0.0,0.0,64,0.00,CLR,,0.00,WeatherDisplay:10.37,2013-06-13 13:33:00,
2013-06-13 09:38:00,61.6,49.3,29.79,NNW,338,0.0,0.0,64,0.00,CLR,,0.00,WeatherDisplay:10.37,2013-06-13 13:38:00,
2013-06-13 09:43:00,61.5,49.2,29.79,NNW,338,0.0,0.0,64,0.00,CLR,,0.00,WeatherDisplay:10.37,2013-06-13 13:43:00,
2013-06-13 09:48:00,61.6,49.3,29.79,NNW,338,0.0,0.0,64,0.00,CLR,,0.00,WeatherDisplay:10.37,2013-06-13 13:48:00,
2013-06-13 09:53:00,61.9,49.6,29.79,NNW,338,0.0,0.0,64,0.00,CLR,,0.00,WeatherDisplay:10.37,2013-06-13 13:53:00,
2013-06-13 09:58:00,62.1,49.8,29.79,NNW,338,0.0,0.0,64,0.00,CLR,,0.00,WeatherDisplay:10.37,2013-06-13 13:58:00,
2013-06-13 10:03:00,62.1,48.0,29.79,NNW,338,0.0,0.0,60,0.00,CLR,,0.00,WeatherDisplay:10.37,2013-06-13 14:03:00,
2013-06-13 10:08:00,62.0,48.0,29.79,NNW,338,0.0,0.0,60,0.00,CLR,,0.00,WeatherDisplay:10.37,2013-06-13 14:08:00,
2013-06-13 10:15:00,62.0,48.0,29.79,NNW,338,0.0,0.0,60,0.00,CLR,,0.00,WeatherDisplay:10.37,2013-06-13 14:15:00,
2013-06-13 10:20:00,62.2,48.1,29.79,NNW,338,0.0,0.0,60,0.00,CLR,,0.00,WeatherDisplay:10.37,2013-06-13 14:20:00,
2013-06-13 10:25:00,62.4,48.3,29.79,NNW,338,0.0,0.0,60,0.00,CLR,,0.00,WeatherDisplay:10.37,2013-06-13 14:25:00,
2013-06-13 10:30:00,62.7,48.6,29.79,NNW,339,0.0,0.0,60,0.00,CLR,,0.00,WeatherDisplay:10.37,2013-06-13 14:30:00,
2013-06-13 10:35:00,62.9,48.8,29.79,NNW,339,0.0,0.0,60,0.00,CLR,,0.00,WeatherDisplay:10.37,2013-06-13 14:35:00,
2013-06-13 10:40:00,62.8,48.7,29.79,NNW,339,0.0,0.0,60,0.00,CLR,,0.00,WeatherDisplay:10.37,2013-06-13 14:40:00,
2013-06-13 10:45:00,62.7,48.6,29.79,NNW,339,0.0,0.0,60,0.00,CLR,,0.00,WeatherDisplay:10.37,2013-06-13 14:45:00,
2013-06-13 10:50:00,63.0,48.9,29.79,NNW,339,0.0,0.0,60,0.00,CLR,,0.00,WeatherDisplay:10.37,2013-06-13 14:50:00,
2013-06-13 10:55:00,63.3,49.2,29.79,NNW,339,0.0,0.0,60,0.00,CLR,,0.00,WeatherDisplay:10.37,2013-06-13 14:55:00,
2013-06-13 11:00:00,63.5,49.4,29.79,NNW,339,0.0,0.0,60,0.00,CLR,,0.00,WeatherDisplay:10.37,2013-06-13 15:00:00,
2013-06-13 11:05:00,63.4,49.7,29.79,NNW,339,0.0,0.0,61,0.00,CLR,,0.00,WeatherDisplay:10.37,2013-06-13 15:05:00,
2013-06-13 11:10:00,63.3,49.6,29.79,NNW,339,0.0,0.0,61,0.00,CLR,,0.00,WeatherDisplay:10.37,2013-06-13 15:10:00,
2013-06-13 11:15:00,63.3,49.6,29.79,NNW,339,0.0,0.0,61,0.00,CLR,,0.00,WeatherDisplay:10.37,2013-06-13 15:15:00,
2013-06-13 11:20:00,63.2,49.5,29.79,NNW,339,0.0,0.0,61,0.00,CLR,,0.00,WeatherDisplay:10.37,2013-06-13 15:20:00,
2013-06-13 11:25:00,63.3,49.6,29.79,NNW,339,0.0,0.0,61,0.00,CLR,,0.00,WeatherDisplay:10.37,2013-06-13 15:25:00,
2013-06-13 11:30:00,63.6,49.9,29.79,NNW,339,0.0,0.0,61,0.00,CLR,,0.00,WeatherDisplay:10.37,2013-06-13 15:30:00,
2013-06-13 11:35:00,63.5,49.8,29.79,NNW,339,0.0,0.0,61,0.00,CLR,,0.00,WeatherDisplay:10.37,2013-06-13 15:35:00,
2013-06-13 11:40:00,63.6,49.9,29.79,NNW,339,0.0,0.0,61,0.00,CLR,,0.00,WeatherDisplay:10.37,2013-06-13 15:40:00,
2013-06-13 11:45:00,63.8,50.1,29.79,NNW,339,0.0,0.0,61,0.00,CLR,,0.00,WeatherDisplay:10.37,2013-06-13 15:45:00,
2013-06-13 11:50:00,64.2,50.5,29.79,NNW,339,0.0,0.0,61,0.00,CLR,,0.00,WeatherDisplay:10.37,2013-06-13 15:50:00,
2013-06-13 11:55:00,64.0,50.3,29.79,NNW,339,0.0,0.0,61,0.00,CLR,,0.00,WeatherDisplay:10.37,2013-06-13 15:55:00,
2013-06-13 12:00:00,63.7,50.0,29.79,NNW,342,0.0,0.0,61,0.00,CLR,,0.00,WeatherDisplay:10.37,2013-06-13 16:00:00,
2013-06-13 12:05:00,63.7,46.7,29.77,North,0,0.0,0.0,54,0.00,CLR,,0.00,WeatherDisplay:10.37,2013-06-13 16:05:00,
2013-06-13 12:10:00,63.5,46.6,29.77,North,0,0.0,0.0,54,0.00,CLR,,0.00,WeatherDisplay:10.37,2013-06-13 16:10:00,
2013-06-13 12:15:00,63.4,46.5,29.77,North,6,0.0,0.0,54,0.00,CLR,,0.00,WeatherDisplay:10.37,2013-06-13 16:15:00,
2013-06-13 12:20:00,63.3,46.4,29.77,North,6,0.0,0.0,54,0.00,CLR,,0.00,WeatherDisplay:10.37,2013-06-13 16:20:00,
2013-06-13 12:25:00,63.3,46.4,29.77,North,6,0.0,0.0,54,0.00,CLR,,0.00,WeatherDisplay:10.37,2013-06-13 16:25:00,
2013-06-13 12:30:00,63.2,46.3,29.77,North,6,0.0,0.0,54,0.00,CLR,,0.00,WeatherDisplay:10.37,2013-06-13 16:30:00,
2013-06-13 12:35:00,63.3,46.4,29.77,North,6,0.0,0.0,54,0.00,CLR,,0.00,WeatherDisplay:10.37,2013-06-13 16:35:00,
2013-06-13 12:40:00,63.2,46.3,29.77,North,6,0.0,0.0,54,0.00,CLR,,0.00,WeatherDisplay:10.37,2013-06-13 16:40:00,
2013-06-13 12:45:00,63.2,46.3,29.77,North,6,0.0,0.0,54,0.00,CLR,,0.00,WeatherDisplay:10.37,2013-06-13 16:45:00,
2013-06-13 12:50:00,63.0,46.1,29.77,North,6,0.0,0.0,54,0.00,CLR,,0.00,WeatherDisplay:10.37,2013-06-13 16:50:00,
2013-06-13 12:55:00,63.1,46.2,29.77,North,6,0.0,0.0,54,0.00,CLR,,0.00,WeatherDisplay:10.37,2013-06-13 16:55:00,
2013-06-13 13:00:00,63.2,46.3,29.77,North,6,0.0,0.0,54,0.00,CLR,,0.00,WeatherDisplay:10.37,2013-06-13 17:00:00,
2013-06-13 13:05:00,63.2,46.3,29.77,North,6,0.0,0.0,54,0.00,CLR,,0.00,WeatherDisplay:10.37,2013-06-13 17:05:00,
2013-06-13 13:10:00,63.2,46.3,29.77,North,6,0.0,0.0,54,0.00,CLR,,0.00,WeatherDisplay:10.37,2013-06-13 17:10:00,
2013-06-13 13:15:00,63.3,46.4,29.77,North,6,0.0,0.0,54,0.00,CLR,,0.00,WeatherDisplay:10.37,2013-06-13 17:15:00,
2013-06-13 13:20:00,63.2,46.3,29.77,North,6,0.0,0.0,54,0.00,CLR,,0.00,WeatherDisplay:10.37,2013-06-13 17:20:00,
2013-06-13 13:25:00,63.2,47.2,29.77,North,6,0.0,0.0,56,0.00,BKN,,0.00,WeatherDisplay:10.37,2013-06-13 17:25:00,
2013-06-13 13:30:00,63.0,47.1,29.77,North,6,0.0,0.0,56,0.00,BKN,,0.00,WeatherDisplay:10.37,2013-06-13 17:30:00,
2013-06-13 13:35:00,63.0,47.1,29.77,North,6,0.0,0.0,56,0.00,BKN,,0.00,WeatherDisplay:10.37,2013-06-13 17:35:00,
2013-06-13 13:40:00,63.0,47.1,29.77,North,6,0.0,0.0,56,0.00,BKN,,0.00,WeatherDisplay:10.37,2013-06-13 17:40:00,
2013-06-13 13:45:00,63.0,47.1,29.77,North,6,0.0,0.0,56,0.00,BKN,,0.00,WeatherDisplay:10.37,2013-06-13 17:45:00,
2013-06-13 13:50:00,63.0,47.1,29.77,North,6,0.0,0.0,56,0.00,BKN,,0.00,WeatherDisplay:10.37,2013-06-13 17:50:00,
2013-06-13 13:55:00,62.7,46.8,29.77,North,6,0.0,0.0,56,0.00,BKN,,0.00,WeatherDisplay:10.37,2013-06-13 17:55:00,
2013-06-13 14:00:00,62.6,46.7,29.77,North,6,0.0,0.0,56,0.00,BKN,,0.00,WeatherDisplay:10.37,2013-06-13 18:00:00,
2013-06-13 14:05:00,62.4,46.5,29.77,North,6,0.0,0.0,56,0.00,BKN,,0.00,WeatherDisplay:10.37,2013-06-13 18:05:00,
2013-06-13 14:10:00,62.0,46.1,29.77,North,6,0.0,0.0,56,0.00,BKN,,0.00,WeatherDisplay:10.37,2013-06-13 18:10:00,
2013-06-13 14:15:00,62.2,52.3,29.75,North,6,0.0,0.0,70,0.00,-RA,,0.00,WeatherDisplay:10.37,2013-06-13 18:15:00,
2013-06-13 14:20:00,62.1,52.2,29.75,North,6,0.0,0.0,70,0.00,-RA,,0.00,WeatherDisplay:10.37,2013-06-13 18:20:00,
2013-06-13 14:25:00,62.1,52.2,29.75,North,6,0.0,0.0,70,0.00,-RA,,0.00,WeatherDisplay:10.37,2013-06-13 18:25:00,
2013-06-13 14:30:00,62.0,52.1,29.75,North,6,0.0,0.0,70,0.00,-RA,,0.00,WeatherDisplay:10.37,2013-06-13 18:30:00,
2013-06-13 14:35:00,62.0,52.1,29.75,North,6,0.0,0.0,70,0.00,-RA,,0.00,WeatherDisplay:10.37,2013-06-13 18:35:00,
2013-06-13 14:40:00,61.8,51.9,29.75,North,6,0.0,0.0,70,0.00,-RA,,0.00,WeatherDisplay:10.37,2013-06-13 18:40:00,
2013-06-13 14:45:00,61.8,51.9,29.75,North,6,0.0,0.0,70,0.00,-RA,,0.00,WeatherDisplay:10.37,2013-06-13 18:45:00,
2013-06-13 14:50:00,61.6,51.7,29.75,North,6,0.0,0.0,70,0.00,-RA,,0.00,WeatherDisplay:10.37,2013-06-13 18:50:00,
2013-06-13 14:55:00,61.1,51.2,29.75,North,6,0.0,0.0,70,0.00,-RA,,0.00,WeatherDisplay:10.37,2013-06-13 18:55:00,
2013-06-13 15:00:00,60.8,51.0,29.75,North,6,0.0,0.0,70,0.00,-RA,,0.00,WeatherDisplay:10.37,2013-06-13 19:00:00,
2013-06-13 15:05:00,60.2,56.9,29.73,North,6,0.0,0.0,89,0.00,-RA,,0.00,WeatherDisplay:10.37,2013-06-13 19:05:00,
2013-06-13 15:10:00,59.8,56.6,29.73,North,6,0.0,0.0,89,0.00,-RA,,0.00,WeatherDisplay:10.37,2013-06-13 19:10:00,
2013-06-13 15:15:00,59.0,55.8,29.73,North,6,0.0,0.0,89,0.00,-RA,,0.00,WeatherDisplay:10.37,2013-06-13 19:15:00,
2013-06-13 15:20:00,59.1,55.9,29.73,North,6,0.0,0.0,89,0.00,-RA,,0.00,WeatherDisplay:10.37,2013-06-13 19:20:00,
2013-06-13 15:25:00,59.2,56.0,29.73,North,6,0.0,0.0,89,0.00,-RA,,0.00,WeatherDisplay:10.37,2013-06-13 19:25:00,
2013-06-13 15:30:00,58.8,55.6,29.73,NNE,15,0.0,0.0,89,0.01,-RA,,0.01,WeatherDisplay:10.37,2013-06-13 19:30:00,
2013-06-13 15:35:00,58.4,55.2,29.73,NE,35,1.1,0.0,89,0.01,-RA,,0.01,WeatherDisplay:10.37,2013-06-13 19:35:00,
2013-06-13 15:40:00,58.0,54.8,29.73,NE,35,0.0,0.0,89,0.01,-RA,,0.01,WeatherDisplay:10.37,2013-06-13 19:40:00,
2013-06-13 15:45:00,58.3,55.1,29.73,NE,35,0.0,0.0,89,0.01,-RA,,0.01,WeatherDisplay:10.37,2013-06-13 19:45:00,
2013-06-13 15:50:00,58.2,55.0,29.73,NE,35,0.0,0.0,89,0.01,-RA,,0.01,WeatherDisplay:10.37,2013-06-13 19:50:00,
2013-06-13 15:55:00,58.0,54.8,29.73,NE,35,0.0,0.0,89,0.01,-RA,,0.01,WeatherDisplay:10.37,2013-06-13 19:55:00,
2013-06-13 16:00:00,58.0,54.8,29.73,NE,35,0.0,0.0,89,0.01,-RA,,0.01,WeatherDisplay:10.37,2013-06-13 20:00:00,
2013-06-13 16:05:00,58.0,56.0,29.74,NE,35,0.0,0.0,93,0.01,-RA,,0.01,WeatherDisplay:10.37,2013-06-13 20:05:00,
2013-06-13 16:10:00,57.9,55.9,29.74,NE,35,0.0,0.0,93,0.01,-RA,,0.01,WeatherDisplay:10.37,2013-06-13 20:10:00,
2013-06-13 16:15:00,57.9,55.9,29.74,NE,35,0.0,0.0,93,0.01,-RA,,0.01,WeatherDisplay:10.37,2013-06-13 20:15:00,
2013-06-13 16:20:00,57.7,55.7,29.74,NE,35,0.0,0.0,93,0.01,-RA,,0.01,WeatherDisplay:10.37,2013-06-13 20:20:00,
2013-06-13 16:25:00,57.5,55.5,29.74,NE,35,0.0,0.0,93,0.02,-RA,,0.02,WeatherDisplay:10.37,2013-06-13 20:25:00,
2013-06-13 16:30:00,57.3,55.3,29.74,NE,35,0.0,0.0,93,0.01,-RA,,0.02,WeatherDisplay:10.37,2013-06-13 20:30:00,
2013-06-13 16:35:00,57.2,55.2,29.74,NE,35,0.0,0.0,93,0.01,-RA,,0.02,WeatherDisplay:10.37,2013-06-13 20:35:00,
2013-06-13 16:40:00,57.1,55.1,29.74,NE,35,0.0,0.0,93,0.01,-RA,,0.02,WeatherDisplay:10.37,2013-06-13 20:40:00,
2013-06-13 16:45:00,57.1,55.1,29.74,NE,35,0.0,0.0,93,0.01,-RA,,0.02,WeatherDisplay:10.37,2013-06-13 20:45:00,
2013-06-13 16:50:00,56.9,54.9,29.74,NE,35,0.0,0.0,93,0.02,-RA,,0.03,WeatherDisplay:10.37,2013-06-13 20:50:00,
2013-06-13 16:55:00,56.8,54.8,29.74,NE,35,0.0,0.0,93,0.02,-RA,,0.03,WeatherDisplay:10.37,2013-06-13 20:55:00,
2013-06-13 17:00:00,56.9,54.9,29.74,NE,35,0.0,0.0,93,0.02,-RA,,0.03,WeatherDisplay:10.37,2013-06-13 21:00:00,
2013-06-13 17:05:00,56.8,54.8,29.74,NE,35,0.0,0.0,93,0.02,-RA,,0.03,WeatherDisplay:10.37,2013-06-13 21:05:00,
2013-06-13 17:10:00,56.7,54.7,29.74,NE,35,0.0,0.0,93,0.02,-RA,,0.03,WeatherDisplay:10.37,2013-06-13 21:10:00,
2013-06-13 17:15:00,56.6,55.5,29.75,NE,35,0.0,0.0,96,0.03,-RA,,0.04,WeatherDisplay:10.37,2013-06-13 21:15:00,
2013-06-13 17:20:00,56.4,55.3,29.75,NE,35,0.0,0.0,96,0.03,-RA,,0.04,WeatherDisplay:10.37,2013-06-13 21:20:00,
2013-06-13 17:25:00,56.3,55.2,29.75,NE,35,0.0,0.0,96,0.02,-RA,,0.04,WeatherDisplay:10.37,2013-06-13 21:25:00,
2013-06-13 17:30:00,56.2,55.1,29.75,NE,35,0.0,0.0,96,0.03,-RA,,0.05,WeatherDisplay:10.37,2013-06-13 21:30:00,
2013-06-13 17:35:00,56.1,54.1,29.74,NE,35,0.0,0.0,93,0.03,-RA,,0.05,WeatherDisplay:10.37,2013-06-13 21:35:00,
2013-06-13 17:40:00,56.0,54.0,29.74,NE,35,0.0,0.0,93,0.04,-RA,,0.06,WeatherDisplay:10.37,2013-06-13 21:40:00,
2013-06-13 17:45:00,56.0,54.0,29.74,NE,35,0.0,0.0,93,0.04,-RA,,0.06,WeatherDisplay:10.37,2013-06-13 21:45:00,
2013-06-13 17:50:00,56.0,54.0,29.74,NE,35,0.0,0.0,93,0.03,-RA,,0.06,WeatherDisplay:10.37,2013-06-13 21:50:00,
2013-06-13 17:55:00,55.8,53.8,29.75,NE,35,0.0,0.0,93,0.03,-RA,,0.06,WeatherDisplay:10.37,2013-06-13 21:55:00,
2013-06-13 18:00:00,55.7,53.7,29.75,NE,35,0.0,0.0,93,0.04,-RA,,0.07,WeatherDisplay:10.37,2013-06-13 22:00:00,
2013-06-13 18:05:00,55.6,53.6,29.75,NE,35,0.0,0.0,93,0.04,-RA,,0.07,WeatherDisplay:10.37,2013-06-13 22:05:00,
2013-06-13 18:10:00,55.7,53.7,29.75,NE,35,0.0,0.0,93,0.04,-RA,,0.08,WeatherDisplay:10.37,2013-06-13 22:10:00,
2013-06-13 18:15:00,55.5,54.4,29.74,NE,35,0.0,0.0,96,0.04,-RA,,0.08,WeatherDisplay:10.37,2013-06-13 22:15:00,
2013-06-13 18:20:00,55.0,53.9,29.74,NE,35,0.0,0.0,96,0.04,-RA,,0.08,WeatherDisplay:10.37,2013-06-13 22:20:00,
2013-06-13 18:25:00,54.5,53.4,29.74,NE,35,0.0,0.0,96,0.04,-RA,,0.08,WeatherDisplay:10.37,2013-06-13 22:25:00,
2013-06-13 18:30:00,54.2,53.1,29.74,NE,35,0.0,0.0,96,0.03,-RA,,0.08,WeatherDisplay:10.37,2013-06-13 22:30:00,
2013-06-13 18:35:00,54.1,53.0,29.74,NE,43,0.0,0.0,96,0.03,-RA,,0.08,WeatherDisplay:10.37,2013-06-13 22:35:00,
2013-06-13 18:40:00,53.8,52.7,29.74,NE,43,0.0,0.0,96,0.03,-RA,,0.09,WeatherDisplay:10.37,2013-06-13 22:40:00,
2013-06-13 18:45:00,53.7,52.6,29.74,NE,43,0.0,0.0,96,0.03,-RA,,0.09,WeatherDisplay:10.37,2013-06-13 22:45:00,
2013-06-13 18:50:00,53.5,52.4,29.74,NE,43,0.0,0.0,96,0.03,-RA,,0.09,WeatherDisplay:10.37,2013-06-13 22:50:00,
2013-06-13 18:55:00,53.4,52.3,29.74,NE,43,0.0,0.0,96,0.03,-RA,,0.09,WeatherDisplay:10.37,2013-06-13 22:55:00,
2013-06-13 19:00:00,53.1,52.0,29.74,NE,43,0.0,0.0,96,0.03,-RA,,0.10,WeatherDisplay:10.37,2013-06-13 23:00:00,
2013-06-13 19:05:00,53.2,52.1,29.75,NE,43,0.0,0.0,96,0.03,-RA,,0.10,WeatherDisplay:10.37,2013-06-13 23:05:00,
2013-06-13 19:10:00,53.0,51.9,29.75,NE,43,0.0,0.0,96,0.03,-RA,,0.10,WeatherDisplay:10.37,2013-06-13 23:10:00,
2013-06-13 19:15:00,52.9,51.8,29.75,NE,43,0.0,0.0,96,0.02,-RA,,0.10,WeatherDisplay:10.37,2013-06-13 23:15:00,
2013-06-13 19:20:00,52.8,51.7,29.75,NE,43,0.0,0.0,96,0.02,-RA,,0.10,WeatherDisplay:10.37,2013-06-13 23:20:00,
2013-06-13 19:25:00,52.7,51.6,29.75,NE,43,0.0,0.0,96,0.02,-RA,,0.10,WeatherDisplay:10.37,2013-06-13 23:25:00,
2013-06-13 19:30:00,52.8,51.7,29.75,NE,43,0.0,0.0,96,0.02,-RA,,0.10,WeatherDisplay:10.37,2013-06-13 23:30:00,
2013-06-13 19:35:00,52.5,51.4,29.75,NE,43,0.0,0.0,96,0.02,-RA,,0.10,WeatherDisplay:10.37,2013-06-13 23:35:00,
2013-06-13 19:40:00,52.5,51.4,29.75,NE,43,0.0,0.0,96,0.01,-RA,,0.10,WeatherDisplay:10.37,2013-06-13 23:40:00,
2013-06-13 19:45:00,52.5,51.4,29.75,NE,43,0.0,0.0,96,0.01,-RA,,0.10,WeatherDisplay:10.37,2013-06-13 23:45:00,
2013-06-13 19:50:00,52.3,51.2,29.75,NE,43,0.0,0.0,96,0.01,-RA,,0.10,WeatherDisplay:10.37,2013-06-13 23:50:00,
2013-06-13 19:55:00,52.2,51.1,29.75,NE,43,0.0,0.0,96,0.01,-RA,,0.11,WeatherDisplay:10.37,2013-06-13 23:55:00,
2013-06-13 20:00:00,52.0,50.9,29.75,NE,43,0.0,0.0,96,0.01,-RA,,0.11,WeatherDisplay:10.37,2013-06-14 00:00:00,
2013-06-13 20:05:00,52.2,51.1,29.75,NE,43,0.0,0.0,96,0.01,-RA,,0.11,WeatherDisplay:10.37,2013-06-14 00:05:00,
2013-06-13 20:10:00,52.1,51.0,29.75,NE,43,0.0,0.0,96,0.01,-RA,,0.11,WeatherDisplay:10.37,2013-06-14 00:10:00,
2013-06-13 20:15:00,52.1,51.0,29.75,NE,43,0.0,0.0,96,0.01,-RA,,0.11,WeatherDisplay:10.37,2013-06-14 00:15:00,
2013-06-13 20:20:00,52.0,50.9,29.75,NE,43,0.0,0.0,96,0.01,-RA,,0.11,WeatherDisplay:10.37,2013-06-14 00:20:00,
2013-06-13 20:25:00,52.0,50.9,29.75,NE,43,0.0,0.0,96,0.01,-RA,,0.11,WeatherDisplay:10.37,2013-06-14 00:25:00,
2013-06-13 20:30:00,51.7,50.6,29.75,NE,43,0.0,0.0,96,0.01,-RA,,0.11,WeatherDisplay:10.37,2013-06-14 00:30:00,
2013-06-13 20:35:00,51.8,50.7,29.75,NE,43,0.0,0.0,96,0.01,-RA,,0.11,WeatherDisplay:10.37,2013-06-14 00:35:00,
2013-06-13 20:40:00,51.8,50.7,29.75,NE,43,0.0,0.0,96,0.01,-RA,,0.11,WeatherDisplay:10.37,2013-06-14 00:40:00,
2013-06-13 20:45:00,51.6,50.5,29.75,NE,43,0.0,0.0,96,0.01,-RA,,0.11,WeatherDisplay:10.37,2013-06-14 00:45:00,
2013-06-13 20:50:00,51.6,50.5,29.75,NE,43,0.0,0.0,96,0.02,-RA,,0.12,WeatherDisplay:10.37,2013-06-14 00:50:00,
2013-06-13 20:55:00,51.4,50.3,29.75,NE,43,0.0,0.0,96,0.02,-RA,,0.12,WeatherDisplay:10.37,2013-06-14 00:55:00,
2013-06-13 21:00:00,51.3,50.2,29.75,NE,43,0.0,0.0,96,0.01,-RA,,0.12,WeatherDisplay:10.37,2013-06-14 01:00:00,
2013-06-13 21:05:00,51.4,50.3,29.75,NE,43,0.0,0.0,96,0.01,-RA,,0.12,WeatherDisplay:10.37,2013-06-14 01:05:00,
2013-06-13 21:10:00,51.5,50.4,29.75,NE,43,0.0,0.0,96,0.01,-RA,,0.12,WeatherDisplay:10.37,2013-06-14 01:10:00,
2013-06-13 21:15:00,51.3,50.2,29.75,NE,43,0.0,0.0,96,0.01,-RA,,0.12,WeatherDisplay:10.37,2013-06-14 01:15:00,
2013-06-13 21:20:00,51.4,50.3,29.75,NE,43,0.0,0.0,96,0.01,-RA,,0.12,WeatherDisplay:10.37,2013-06-14 01:20:00,
2013-06-13 21:25:00,51.4,50.3,29.75,NE,43,0.0,0.0,96,0.01,-RA,,0.12,WeatherDisplay:10.37,2013-06-14 01:25:00,
2013-06-13 21:30:00,51.3,50.2,29.75,NE,43,0.0,0.0,96,0.01,-RA,,0.12,WeatherDisplay:10.37,2013-06-14 01:30:00,
2013-06-13 21:35:00,51.1,50.0,29.75,NE,43,0.0,0.0,96,0.01,-RA,,0.12,WeatherDisplay:10.37,2013-06-14 01:35:00,
2013-06-13 21:40:00,51.1,50.0,29.75,NE,43,0.0,0.0,96,0.01,-RA,,0.13,WeatherDisplay:10.37,2013-06-14 01:40:00,
2013-06-13 21:45:00,51.2,50.1,29.75,NE,43,0.0,0.0,96,0.02,-RA,,0.13,WeatherDisplay:10.37,2013-06-14 01:45:00,
2013-06-13 21:50:00,51.4,50.3,29.75,NE,43,0.0,0.0,96,0.01,-RA,,0.13,WeatherDisplay:10.37,2013-06-14 01:50:00,
2013-06-13 21:55:00,51.2,50.1,29.75,NE,43,0.0,0.0,96,0.01,-RA,,0.13,WeatherDisplay:10.37,2013-06-14 01:55:00,
2013-06-13 22:00:00,51.3,50.2,29.75,NE,43,0.0,0.0,96,0.01,-RA,,0.13,WeatherDisplay:10.37,2013-06-14 02:00:00,
2013-06-13 22:05:00,51.2,50.1,29.75,NE,43,0.0,0.0,96,0.01,-RA,,0.13,WeatherDisplay:10.37,2013-06-14 02:05:00,
2013-06-13 22:10:00,51.3,50.2,29.75,NE,43,0.0,0.0,96,0.01,-RA,,0.13,WeatherDisplay:10.37,2013-06-14 02:10:00,
2013-06-13 22:15:00,51.3,51.3,29.75,NE,43,0.0,0.0,100,0.01,-RA,,0.13,WeatherDisplay:10.37,2013-06-14 02:15:00,
2013-06-13 22:20:00,51.1,51.1,29.75,NE,43,0.0,0.0,100,0.01,-RA,,0.13,WeatherDisplay:10.37,2013-06-14 02:20:00,
2013-06-13 22:25:00,51.0,51.0,29.75,NE,43,0.0,0.0,100,0.01,-RA,,0.13,WeatherDisplay:10.37,2013-06-14 02:25:00,
2013-06-13 22:30:00,50.8,50.8,29.75,NE,43,0.0,0.0,100,0.02,-RA,,0.14,WeatherDisplay:10.37,2013-06-14 02:30:00,
2013-06-13 22:35:00,51.1,51.1,29.75,NE,43,0.0,0.0,100,0.02,-RA,,0.14,WeatherDisplay:10.37,2013-06-14 02:35:00,
2013-06-13 22:40:00,51.3,51.3,29.75,NE,43,0.0,0.0,100,0.02,-RA,,0.14,WeatherDisplay:10.37,2013-06-14 02:40:00,
2013-06-13 22:45:00,51.2,51.2,29.75,NE,43,0.0,0.0,100,0.01,-RA,,0.14,WeatherDisplay:10.37,2013-06-14 02:45:00,
2013-06-13 22:50:00,51.1,51.1,29.75,NE,43,0.0,0.0,100,0.01,-RA,,0.14,WeatherDisplay:10.37,2013-06-14 02:50:00,
2013-06-13 22:55:00,51.1,51.1,29.75,NE,43,0.0,0.0,100,0.01,-RA,,0.14,WeatherDisplay:10.37,2013-06-14 02:55:00,
2013-06-13 23:00:00,50.9,50.9,29.75,NE,43,0.0,0.0,100,0.01,-RA,,0.14,WeatherDisplay:10.37,2013-06-14 03:00:00,
2013-06-13 23:05:00,51.0,51.0,29.75,NE,43,0.0,0.0,100,0.01,-RA,,0.14,WeatherDisplay:10.37,2013-06-14 03:05:00,
2013-06-13 23:10:00,51.1,51.1,29.75,NE,43,0.0,0.0,100,0.02,-RA,,0.15,WeatherDisplay:10.37,2013-06-14 03:10:00,
2013-06-13 23:15:00,51.1,50.0,29.74,NE,43,0.0,0.0,96,0.02,-RA,,0.15,WeatherDisplay:10.37,2013-06-14 03:15:00,
2013-06-13 23:20:00,51.1,50.0,29.74,NE,43,0.0,0.0,96,0.02,-RA,,0.15,WeatherDisplay:10.37,2013-06-14 03:20:00,
2013-06-13 23:25:00,50.9,49.8,29.74,NE,43,0.0,0.0,96,0.02,-RA,,0.15,WeatherDisplay:10.37,2013-06-14 03:25:00,
2013-06-13 23:30:00,50.7,49.6,29.74,NE,43,0.0,0.0,96,0.01,-RA,,0.15,WeatherDisplay:10.37,2013-06-14 03:30:00,
2013-06-13 23:35:00,50.6,49.5,29.74,NE,43,0.0,0.0,96,0.01,-RA,,0.16,WeatherDisplay:10.37,2013-06-14 03:35:00,
2013-06-13 23:40:00,51.1,50.0,29.74,NE,43,0.0,0.0,96,0.02,-RA,,0.16,WeatherDisplay:10.37,2013-06-14 03:40:00,
2013-06-13 23:45:00,51.1,50.0,29.74,NE,43,0.0,0.0,96,0.02,-RA,,0.16,WeatherDisplay:10.37,2013-06-14 03:45:00,
2013-06-13 23:50:00,51.2,50.1,29.74,NE,43,0.0,0.0,96,0.02,-RA,,0.16,WeatherDisplay:10.37,2013-06-14 03:50:00,
2013-06-13 23:55:00,51.1,50.0,29.74,NE,43,0.0,0.0,96,0.02,-RA,,0.16,WeatherDisplay:10.37,2013-06-14 03:55:00,